Theta_e
335 324 326 323 308 307 306 306 310 308 310 314 315 313 313 316 314 315 343 345 343 346 358 361 362 362 362 363 364 364 363 363 363 363 362 362 363 362 361 359 356 354 350 347 343 341 339 338 336
330 323 322 317 306 302 305 308 306 310 312 315 316 316 314 313 320 325 327 346 341 349 358 357 361 361 361 362 362 362 362 363 363 363 363 362 362 361 359 357 354 351 347 344 342 341 340 340 339
328 323 314 311 307 302 303 307 309 311 313 313 314 318 315 318 328 333 343 345 343 351 356 357 360 360 361 360 360 361 361 362 362 362 362 362 360 359 357 356 354 350 345 343 343 343 342 341 340
325 321 315 305 304 307 303 309 310 310 313 314 316 315 320 327 330 340 345 344 342 349 353 361 360 360 361 360 359 359 360 360 361 361 361 360 359 357 355 354 353 351 348 345 345 345 343 343 341
325 318 307 304 305 306 306 309 310 310 311 312 317 315 319 326 335 344 345 344 341 346 350 362 359 360 361 361 360 358 358 358 359 359 359 358 356 355 354 353 352 351 350 348 346 346 347 346 344
315 315 305 303 305 306 308 309 312 311 313 313 316 317 320 327 332 342 343 343 341 344 350 359 361 360 360 360 360 358 358 357 357 357 357 357 356 354 353 352 352 351 351 351 349 348 348 348 346
312 310 305 305 305 306 308 314 312 312 314 313 319 315 321 323 332 341 342 341 340 344 348 356 360 362 360 360 359 358 358 357 357 356 356 356 355 354 352 352 352 351 351 351 350 349 349 348 346
313 312 306 307 305 305 310 312 315 315 313 320 320 315 317 322 331 338 342 338 338 343 345 352 356 357 359 359 360 359 358 358 357 357 357 356 356 354 352 351 351 352 351 351 350 350 349 348 347
316 306 303 305 306 308 312 310 315 319 316 317 318 319 321 323 325 329 337 337 336 339 343 348 348 351 354 352 357 358 358 358 358 358 357 354 349 351 349 347 350 352 352 351 351 350 349 348 345
309 305 304 310 311 310 312 311 312 311 312 314 317 320 321 321 322 322 328 337 334 335 339 343 347 349 350 346 354 357 356 356 355 353 355 352 349 351 347 349 351 351 351 351 351 351 349 345 338
308 304 308 309 311 313 311 312 315 309 307 312 313 315 317 318 320 320 322 330 335 335 337 342 349 352 350 347 348 351 350 352 353 355 356 356 350 352 350 348 350 347 348 342 345 344 343 340 339
302 306 307 309 310 310 309 312 310 312 310 312 314 315 316 317 318 319 321 324 332 336 336 339 347 352 354 349 348 350 347 350 350 353 359 356 353 353 350 345 345 347 343 344 342 340 343 342 342
301 303 305 307 308 309 309 308 308 309 312 311 312 314 314 315 317 320 321 325 330 334 339 339 343 350 353 353 347 349 350 348 351 351 357 355 352 350 349 347 344 343 342 340 340 340 340 342 342
303 302 303 305 305 306 304 305 306 307 309 307 311 310 312 314 315 317 320 325 332 335 335 339 343 350 350 352 353 349 350 349 349 349 350 355 352 351 347 347 344 341 340 339 338 338 340 341 340
302 299 301 302 303 303 305 301 302 308 308 308 314 311 312 313 314 314 317 321 323 327 332 336 342 347 352 349 349 350 346 346 344 345 350 352 354 351 350 343 341 339 341 344 343 342 342 341 340
298 299 295 301 301 303 302 296 303 305 306 306 307 312 314 312 313 314 316 319 322 324 328 333 337 343 350 353 350 346 343 343 342 344 346 349 350 350 348 340 340 340 342 341 340 340 340 340 341
298 293 294 296 301 300 300 297 304 305 305 303 303 307 309 309 312 315 315 316 320 323 325 326 332 340 347 351 349 349 351 345 342 342 341 346 346 345 345 339 341 345 338 340 341 342 343 341 344
293 293 294 294 299 300 299 299 303 304 304 303 303 304 307 308 310 312 315 317 319 326 331 328 328 338 349 349 350 346 343 343 342 340 341 345 345 344 345 341 345 343 340 341 342 347 344 345 345
295 294 293 296 299 297 298 298 301 304 304 303 303 303 305 307 310 312 314 317 318 323 326 330 330 337 340 344 340 343 343 346 343 343 345 345 345 344 348 340 344 345 342 339 344 345 345 346 347
295 294 294 297 298 298 297 297 300 302 303 304 304 304 304 306 308 309 312 316 320 322 324 325 328 331 333 336 349 348 348 346 347 346 347 347 344 348 348 348 346 347 340 346 346 348 345 346 348
295 293 294 293 297 298 297 295 298 300 302 303 305 306 305 305 305 307 311 316 318 319 321 322 326 328 331 333 335 342 344 346 345 348 347 348 346 348 351 350 348 347 345 344 348 350 349 342 346
292 297 295 294 293 289 297 287 295 298 299 301 304 305 305 305 306 309 311 313 316 317 319 322 325 328 328 331 333 340 336 338 340 345 348 351 349 347 348 353 348 350 346 352 351 351 352 349 344
294 297 295 295 293 292 292 289 294 296 296 298 301 303 305 307 310 308 310 312 315 317 319 322 325 327 328 332 333 329 335 331 334 339 354 359 358 352 347 354 354 354 350 354 355 354 353 349 345
298 296 296 296 293 286 291 290 291 294 296 299 301 302 304 308 309 311 311 313 314 317 319 322 324 326 328 329 330 332 332 335 332 336 340 345 351 353 355 352 356 356 355 354 355 356 353 349 348
297 294 287 285 286 284 292 289 292 296 297 298 299 301 305 308 309 309 311 312 314 316 318 321 323 324 326 327 328 329 331 333 336 338 333 342 343 348 357 359 358 355 358 357 356 354 352 350 348
295 294 287 280 282 285 291 286 292 298 300 301 303 304 306 307 308 310 311 314 315 317 319 320 321 323 324 325 327 331 332 329 330 336 334 334 340 345 358 358 359 356 357 356 356 352 350 352 349
294 290 295 288 289 285 288 292 296 299 299 301 302 303 305 307 309 310 312 314 316 317 318 319 321 322 324 327 331 333 333 333 332 338 343 336 346 345 351 354 357 357 356 355 355 348 350 353 353
296 297 288 289 280 280 286 289 290 294 296 299 300 302 304 307 308 310 311 314 315 317 318 320 321 321 323 325 327 329 334 336 336 338 338 341 346 349 348 353 357 354 353 352 354 351 353 353 351
292 291 291 291 290 283 282 288 298 296 298 299 300 303 305 307 308 310 311 314 314 316 317 318 318 318 320 323 326 327 329 333 338 339 339 343 349 346 345 349 350 351 350 352 353 355 353 351 351
296 293 292 288 285 289 288 288 300 300 301 301 302 304 306 308 309 310 311 312 312 315 314 314 316 317 318 321 322 325 328 329 333 339 339 341 343 344 344 346 348 347 348 352 352 352 351 350 348
Wind_Speed
13 5 5 7 8 7 12 5 2 6 7 2 5 8 8 12 10 5 4 5 9 20 22 23 20 17 15 16 17 16 17 16 17 16 15 15 15 15 13 12 12 11 11 10 10 10 10 9 9
9 5 5 2 8 11 11 3 10 3 5 7 7 8 10 11 8 13 12 7 14 18 20 24 21 18 16 15 16 16 16 16 16 16 15 15 15 14 14 13 12 12 12 12 11 11 11 11 10
6 6 5 4 11 13 12 5 7 5 5 3 5 5 5 3 13 12 10 4 15 19 20 21 22 19 16 15 15 16 17 16 17 16 16 16 15 15 14 13 12 13 13 12 12 11 11 11 10
4 5 5 10 14 12 9 4 3 5 5 2 5 7 2 5 17 16 18 9 17 20 21 22 23 20 16 14 14 14 16 16 17 17 17 16 16 15 14 13 11 12 12 12 12 11 9 9 9
5 4 9 10 14 4 9 10 10 11 10 8 5 6 2 12 17 15 11 11 18 20 20 22 23 22 19 15 14 14 15 15 16 16 16 16 16 15 14 13 12 11 11 11 11 10 9 10 10
8 6 11 13 15 9 7 7 10 9 9 7 8 8 2 13 19 16 9 10 17 18 19 21 22 22 19 16 14 13 13 14 15 15 15 15 15 14 14 14 12 12 11 11 11 10 9 8 8
13 11 16 18 15 10 10 7 13 9 9 6 6 10 4 17 17 12 7 6 14 16 16 18 21 20 18 17 15 13 11 11 12 13 13 11 11 11 12 12 12 11 10 11 11 10 9 8 8
11 13 22 18 17 19 11 10 11 11 4 6 4 4 11 15 12 8 4 6 10 14 15 16 18 19 18 17 14 13 12 11 10 10 10 10 9 9 10 9 9 10 10 10 10 10 9 8 8
13 15 19 23 21 16 9 12 7 10 11 10 6 8 10 14 13 12 4 7 11 12 14 15 18 18 17 18 15 12 13 12 10 10 8 9 10 12 13 11 9 9 9 10 9 9 9 9 9
15 16 26 21 20 18 14 16 9 7 12 13 11 4 10 16 14 11 10 4 13 13 15 14 15 17 17 14 15 16 14 13 13 13 13 11 11 9 10 9 8 10 10 9 9 10 10 9 9
16 23 21 21 15 17 18 19 17 14 14 14 13 13 16 15 12 11 7 10 8 15 12 14 12 13 16 14 11 9 10 10 11 15 13 12 9 8 8 6 7 8 11 8 11 10 9 12 9
16 16 18 21 16 15 17 17 21 17 16 6 12 14 17 15 13 12 6 4 5 7 15 14 13 12 13 10 11 11 11 11 10 12 14 9 8 8 7 7 7 7 7 9 8 7 9 10 10
16 19 10 14 18 20 18 20 18 17 13 8 13 12 14 15 14 12 3 3 5 2 8 15 16 15 13 13 10 10 10 11 11 10 12 11 10 9 8 6 6 6 6 6 6 7 6 8 10
4 12 14 15 16 18 19 20 18 19 10 9 10 12 15 12 8 8 5 1 3 5 2 6 14 15 16 14 13 10 9 10 10 10 11 14 10 8 8 7 7 6 6 6 5 5 6 8 9
11 13 15 17 18 21 18 22 25 17 9 18 17 13 12 11 9 4 3 2 4 2 3 7 9 13 15 16 14 10 10 10 11 10 10 10 11 9 8 7 6 6 5 6 7 7 7 8 9
11 11 15 14 10 16 14 18 4 2 12 16 17 15 15 11 8 3 1 4 5 7 7 5 8 8 12 12 10 11 11 10 10 9 9 12 13 12 10 8 8 7 7 7 8 8 6 6 9
11 14 8 7 4 4 12 14 20 3 6 5 5 10 10 9 8 2 2 4 6 6 4 5 6 7 10 10 8 10 11 10 12 11 9 11 14 15 12 10 9 9 6 8 9 6 4 7 8
5 9 7 11 7 9 13 13 11 10 10 10 11 13 9 11 8 2 6 5 7 6 5 6 3 4 7 7 7 6 8 10 12 13 12 14 13 17 14 11 10 11 9 9 5 4 6 7 8
8 9 11 7 6 10 14 16 16 16 16 15 14 13 13 11 7 4 8 7 6 6 7 9 10 7 4 6 4 3 10 8 10 12 16 16 15 17 15 12 12 13 13 13 14 13 10 8 7
10 13 12 8 7 9 15 19 19 20 17 19 18 17 15 11 7 5 5 7 8 8 6 6 8 12 11 6 3 2 5 7 9 11 15 16 18 17 16 14 13 14 10 10 10 7 8 7 8
12 12 12 11 13 16 19 21 21 6 10 9 10 10 6 6 4 1 5 6 7 8 10 7 6 6 6 9 6 5 6 5 11 9 13 14 19 18 19 17 13 12 10 10 10 10 12 10 9
15 6 8 10 12 12 8 11 12 10 12 9 11 9 8 5 2 1 2 5 8 9 9 9 7 6 6 4 7 9 9 10 13 14 13 12 18 20 18 16 16 13 13 9 9 9 11 11 11
13 1 9 12 15 18 18 13 13 4 9 9 6 3 5 0 5 3 4 6 7 7 10 8 9 9 6 6 7 9 12 13 13 13 12 11 12 18 18 17 15 14 12 10 10 12 14 11 12
1 10 13 17 13 16 19 15 10 9 7 10 11 3 3 2 3 1 4 6 7 7 7 9 11 10 9 8 8 10 13 14 13 11 11 11 10 12 17 18 14 13 12 12 12 13 13 13 12
11 13 11 11 12 12 7 7 13 4 5 3 6 4 3 5 7 5 7 8 7 8 9 9 10 13 12 11 11 11 12 14 16 14 12 12 12 11 13 16 14 13 11 11 12 12 12 15 14
11 9 11 17 13 9 13 8 2 4 3 4 2 3 3 3 5 8 9 8 8 9 10 10 13 13 12 13 14 13 12 10 11 13 12 12 12 12 11 13 14 17 14 13 12 10 12 14 14
11 11 8 13 16 15 16 13 7 13 9 8 5 5 7 6 10 12 11 9 8 9 9 11 13 13 13 14 14 14 13 13 13 16 13 12 13 11 12 16 16 16 15 15 13 11 14 13 13
14 12 9 11 12 18 14 13 8 12 7 8 5 5 7 12 14 13 12 11 9 10 10 11 12 13 15 14 13 14 15 14 14 13 15 14 12 13 11 15 14 15 14 13 13 14 14 14 10
9 13 13 14 13 12 12 6 11 2 3 5 5 9 14 15 14 13 13 12 13 12 12 12 13 14 13 15 15 15 15 16 18 16 17 16 15 15 16 17 18 18 18 17 16 15 15 14 12
13 18 16 12 15 11 14 16 6 6 6 3 11 14 12 13 12 13 14 14 14 12 13 14 14 16 16 12 14 17 16 17 18 19 19 18 17 17 19 18 18 18 18 17 18 17 14 14 14
Wind_Direction
283 316 293 242 245 237 252 169 12 137 169 90 311 259 275 314 298 350 83 171 158 158 158 167 160 166 174 167 163 160 156 157 157 155 155 151 149 148 143 142 144 148 148 146 143 141 138 136 127
314 288 223 269 265 247 233 140 221 172 1 304 270 258 250 271 342 316 293 145 158 158 162 167 164 168 175 171 167 161 159 158 155 155 157 156 153 148 144 150 159 160 159 158 153 154 147 144 143
275 286 276 255 235 260 279 67 265 127 322 289 291 338 331 17 352 308 35 269 176 163 168 166 166 167 176 173 172 165 161 162 159 160 161 160 158 152 154 162 170 168 167 163 160 160 157 153 150
252 196 206 252 236 225 279 292 350 241 304 195 329 286 279 42 343 320 309 244 186 173 171 151 167 167 176 178 175 171 167 166 165 166 166 164 163 158 162 166 173 173 172 170 167 166 165 158 157
228 255 254 244 252 256 242 269 290 274 277 267 323 334 270 8 359 346 315 208 190 178 173 160 171 168 172 182 182 179 175 173 171 170 170 168 168 165 166 169 178 177 174 176 176 172 178 171 170
239 275 244 244 238 190 253 247 268 271 267 267 271 315 113 13 9 355 334 203 195 177 174 166 174 170 171 181 183 190 184 179 179 175 175 177 174 170 171 172 179 183 186 178 180 182 186 186 179
242 239 253 256 257 239 240 245 244 264 283 246 342 304 341 7 11 11 343 193 193 174 180 172 179 176 172 177 182 184 194 193 184 181 176 182 178 175 179 176 184 191 190 191 184 185 191 198 193
248 250 254 251 249 246 227 235 259 249 253 339 288 331 334 351 0 358 22 192 190 182 187 180 184 182 185 183 179 184 188 195 195 187 180 174 175 183 186 180 193 194 198 203 195 190 193 207 205
234 242 244 241 242 249 202 231 215 270 263 269 295 301 342 334 334 340 62 194 194 192 194 191 186 186 190 188 181 180 190 192 191 189 177 171 202 189 187 197 173 202 208 212 208 199 201 209 216
220 235 244 252 253 264 251 229 226 252 262 265 276 254 319 329 323 334 342 196 198 198 199 197 195 188 193 193 187 199 200 206 205 203 195 214 213 208 214 184 167 194 206 220 219 212 208 218 236
225 247 256 251 261 256 262 243 237 239 243 260 307 312 317 316 323 319 345 348 228 197 207 208 199 195 202 198 192 189 203 205 206 211 209 205 210 210 210 200 192 210 198 220 206 213 228 231 242
245 252 262 269 244 242 250 264 270 227 243 304 291 301 305 307 311 317 338 322 320 207 207 205 203 206 208 203 198 198 201 202 207 206 207 213 210 208 220 211 203 200 212 215 233 230 240 242 250
243 255 243 257 256 256 263 255 258 257 255 271 276 292 291 298 294 290 294 291 283 164 214 210 201 204 207 220 206 214 207 204 210 208 201 210 210 209 206 212 221 221 220 223 236 250 261 253 253
322 261 254 249 251 252 252 260 255 257 256 275 230 285 289 297 296 293 290 63 241 318 176 231 215 208 204 206 214 208 217 217 212 217 213 209 221 206 207 204 211 229 233 243 236 250 265 242 250
268 261 244 239 244 251 252 258 251 255 251 249 226 248 285 273 280 294 318 16 23 78 72 299 228 222 209 212 214 214 215 215 218 219 219 207 217 211 223 211 212 222 229 247 239 227 234 261 266
248 243 254 229 240 245 240 258 127 156 244 240 269 249 254 263 264 255 7 28 28 43 30 329 304 206 214 219 208 224 219 221 231 212 218 205 202 216 199 207 210 207 210 225 234 224 215 248 246
205 265 213 204 222 282 225 255 226 189 248 253 267 209 230 237 239 229 282 17 10 16 9 67 335 277 212 205 226 230 242 223 233 217 209 208 201 202 210 206 205 201 223 226 231 237 221 244 251
255 239 211 261 175 256 258 249 249 232 243 255 259 258 217 246 233 267 319 339 354 6 11 3 30 226 253 186 181 237 229 236 237 229 227 214 209 203 199 208 200 204 195 201 240 231 228 236 262
286 270 265 265 270 266 262 262 264 257 257 245 236 240 251 242 263 326 321 324 337 6 350 2 340 331 290 234 165 219 248 222 246 242 226 214 210 208 199 206 200 205 206 205 186 185 194 227 232
256 261 258 265 276 280 284 276 279 268 257 249 242 225 226 228 218 302 324 329 342 339 359 340 342 346 336 319 175 147 285 265 253 238 229 212 206 206 207 210 206 209 212 191 192 187 223 213 220
251 266 281 284 309 280 269 279 254 246 248 220 243 233 186 210 256 350 329 337 339 342 342 346 346 324 307 314 327 296 295 289 269 233 231 217 212 204 212 204 209 206 224 187 200 200 213 221 215
272 258 274 271 275 283 333 292 284 276 241 246 192 202 169 182 203 275 321 336 336 337 334 328 331 324 276 266 255 248 250 237 231 240 228 219 211 213 213 203 204 208 214 205 194 203 217 221 228
279 278 264 280 275 283 269 257 268 203 190 173 170 141 172 233 141 110 5 349 331 326 322 325 322 322 299 277 255 254 240 244 242 246 244 219 205 219 218 208 208 207 219 203 210 199 208 209 236
346 246 245 251 264 259 251 249 251 194 220 169 184 350 257 214 193 332 323 314 321 320 326 328 323 313 304 283 270 252 254 263 268 254 248 238 224 211 216 212 212 213 215 212 205 209 203 220 219
230 248 272 265 219 254 83 248 256 167 173 273 291 277 334 274 249 299 309 314 310 315 327 326 327 311 307 288 282 280 271 263 260 256 248 248 242 223 211 204 206 210 213 216 207 205 211 215 220
230 271 282 286 277 274 154 248 143 208 158 301 254 167 231 276 337 324 321 315 307 316 320 323 320 318 312 299 295 292 282 272 270 251 251 251 240 237 232 204 209 207 204 209 202 206 213 211 215
248 230 307 290 271 262 261 243 216 209 221 183 178 231 272 289 315 316 309 302 303 302 309 311 315 314 311 302 298 293 284 273 270 271 264 243 245 241 220 216 209 204 198 198 192 208 205 204 205
249 290 237 212 264 258 247 239 233 168 173 179 243 293 309 295 292 299 299 295 290 292 296 300 305 308 308 299 300 300 298 281 271 260 253 248 242 232 226 213 206 199 189 192 188 205 201 195 188
194 224 223 271 268 257 274 269 85 138 244 250 266 301 307 306 303 299 296 289 291 294 297 301 302 303 298 298 298 296 294 291 288 270 260 245 232 221 214 205 198 190 189 191 192 200 186 186 187
262 273 250 242 246 236 264 271 299 246 255 273 279 304 301 306 302 304 303 298 288 292 303 304 303 301 298 290 284 296 292 299 288 277 266 251 235 222 215 210 196 190 188 188 194 193 175 188 189